Location: Arcueil
(48.7999°N, 2.3326°E)
Time: 19:54:41
(UTC+00:00)

CZ-4 R/B - Pass Details

Date: 03 October 2023
Orbit: 522 x 578 km, 97.7° (Epoch: 28 November)

Event Time Altitude Azimuth Distance (km) Brightness Sun altitude
Exits shadow 19:10:03 11° 173° (S) 1,717 3.6 -17.8°
Maximum altitude 19:13:43 71° 257° (WSW) 560 1.4 -18.4°
Drops below altitude 10° 19:17:32 10° 343° (NNW) 1,771 4.3 -19.0°
Sets 19:19:39 0° 345° (NNW) 2,664 5.3 -19.3°
